Flag for France Weather past 2 weeks in Douai, France

Now
64 °F

Clear.


Feels Like: 64 °F
Forecast: 59 / 77 °F
Wind: 6 mph from Northwest

Location: Lille Airport

Current Time: Jul 26, 2014 at 9:42:43 AM

Latest Report: Jul 26, 2014 at 9:00 AM


Visibility: 6 mi

Pressure: 29.98 "Hg

Humidity: 83%

Dew point: 59 °F

Location of DouaiLocation

Historic Weather in Douai — Graph

°F

Douai temperature yesterday

Maximum temperature yesterday: 77 °F (at 12:30 PM)
Minimum temperature yesterday: 63 °F (at 5:30 AM)
Average temperature yesterday: 70 °F

Past Weeks' High & Low Weather Summary

 TemperatureHumidityPressure
High91 °F (Jul 18, 2:30 PM)100% (Jul 11, 8:30 AM)30.18 "Hg (Jul 11, 8:30 AM)
Low55 °F (Jul 15, 1:30 AM)35% (Jul 24, 5:00 PM)29.74 "Hg (Jul 13, 5:30 PM)
Average69 °F75%29.98 "Hg
* Reported Jul 11 8:30 AM — Jul 26 8:30 AM, Douai, Weather by CustomWeather, © 2014

Note: Actual official high and low records may vary slightly from our data, if they occured in-between our weather recording intervals... More about our weather records

Advertising

Douai weather history for previous 24 hours

 ConditionsComfort  
Time TempWeatherWind HumidityBarometerVisibility
8:30 AM
Jul 26
64 °FPartly sunny.6 mph88%29.95 "Hg5 mi
8:00 AM63 °FPartly sunny.5 mph94%29.95 "Hg4 mi
7:30 AM61 °FBroken clouds.5 mph100%29.95 "Hg4 mi
7:00 AM61 °FPassing clouds.6 mph94%29.95 "Hg4 mi
6:30 AM61 °FPartly cloudy.6 mph94%29.95 "Hg4 mi
6:00 AM61 °FPassing clouds.5 mph94%29.95 "Hg4 mi
5:00 AM64 °FPassing clouds.7 mph88%29.95 "Hg4 mi
4:30 AM64 °FFog.6 mph88%29.95 "Hg3 mi
4:00 AM64 °FFog.5 mph88%29.95 "Hg3 mi
3:30 AM64 °FPartly cloudy.5 mph88%29.95 "Hg4 mi
3:00 AM64 °FOvercast.3 mph88%29.95 "Hg4 mi
2:30 AM64 °FPartly cloudy.5 mph88%29.95 "Hg4 mi
2:00 AM64 °FPassing clouds.3 mph88%29.95 "HgN/A
1:30 AM64 °FPassing clouds.5 mph83%29.95 "HgN/A
1:00 AM64 °FPassing clouds.6 mph83%29.95 "HgN/A
12:30 AM64 °FClear.6 mph78%29.95 "Hg10 mi
12:00 AM64 °FClear.6 mph78%29.95 "Hg10 mi
11:30 PM
Jul 25
64 °FClear.6 mph78%29.95 "Hg10 mi
11:00 PM66 °FClear.6 mph73%29.95 "Hg10 mi
10:30 PM66 °FSunny.6 mph73%29.95 "Hg10 mi
10:00 PM68 °FPassing clouds.8 mph69%29.95 "HgN/A
9:30 PM68 °FScattered clouds.9 mph73%29.95 "HgN/A
9:00 PM70 °FScattered clouds.10 mph64%29.95 "HgN/A
8:30 PM70 °FScattered clouds.13 mph64%29.95 "HgN/A
8:00 PM72 °FScattered clouds.13 mph61%29.95 "HgN/A
7:30 PM72 °FScattered clouds.10 mph61%29.92 "HgN/A
7:00 PM73 °FScattered clouds.12 mph57%29.92 "HgN/A
6:30 PM75 °FScattered clouds.15 mph54%29.92 "HgN/A
6:00 PM75 °FSunny.15 mph54%29.92 "Hg10 mi
5:30 PM75 °FSunny.12 mph54%29.92 "Hg10 mi
5:00 PM75 °FSunny.15 mph54%29.95 "Hg10 mi
4:30 PM75 °FPassing clouds.17 mph57%29.92 "HgN/A
4:00 PM75 °FScattered clouds.17 mph57%29.92 "HgN/A
3:30 PM77 °FScattered clouds.16 mph54%29.95 "HgN/A
3:00 PM75 °FScattered clouds.14 mph54%29.95 "HgN/A
2:30 PM73 °FPartly sunny.13 mph57%29.95 "HgN/A
2:00 PM75 °FPartly sunny.14 mph54%29.95 "HgN/A
1:30 PM75 °FScattered clouds.9 mph57%29.95 "HgN/A
1:00 PM77 °FScattered clouds.10 mph54%29.95 "HgN/A
12:30 PM77 °FScattered clouds.10 mph54%29.95 "HgN/A
12:00 PM73 °FPartly sunny.10 mph65%29.98 "HgN/A
11:30 AM72 °FSunny.9 mph65%29.98 "Hg10 mi
11:00 AM72 °FSunny.9 mph65%29.98 "Hg10 mi
10:30 AM70 °FPassing clouds.5 mph69%29.98 "HgN/A
10:00 AM68 °FSunny.6 mph73%29.98 "Hg10 mi
9:30 AM68 °FSunny.7 mph69%29.98 "Hg10 mi
9:00 AM66 °FPassing clouds.7 mph73%29.98 "HgN/A
Weather by CustomWeather, © 2014

See weather overviewHow to use our weather pages